THORAD AGENA D DEB, 4154

Orbit data source: Space-Track

THORAD AGENA D DEB, 4154 is space debris in LEO originally from a launch on Tue, 30 Sep 1969 UTC launched from the Air Force Western Test Range (AFWTR). Debris objects in space refer to the collection of defunct objects orbiting the Earth. Examples of debris include non-operational satellites, rocket bodies, and fragments generated from explosions, collisions, or faulty payload assembly.

Loading next visibility...
Identifier
4154, 1969-082W
Orbit
LEO
Country
Flag of USUS
Related business
Manufacturer
Unknown
Mission
Spacecraft
Bus & Motor
Unknown
Mass
Unknown
Launch date (UTC)
1969-09-30 (57 years ago)
Launch vehicle
Unknown
Launch site
Air Force Western Test Range (AFWTR)
Object type
Payload
Rocket body
Debris
Shape & HBR
Unknown shape, 0.4 m
Radar Cross Section
Medium (>0.1 m² and <1 m²)

Expand to show TLE details & history
Last TLE update: 12 hours ago

TLE from 12 hours ago
0 THORAD AGENA D DEB
1 04154U 69082W   26093.82067597  .00000067  00000-0  72817-4 0  9995
2 04154  70.0700 320.6764 0048383 191.5016 168.4995 14.06120546639051
Epoch: 2026-04-03T19:41Z
TLE epoch observation values (Epoch: 2026-04-03T19:41:46.403Z)
Latitude
-0.00001°
Longitude
-166.91626°
Altitude
909.395 km
Speed
7.38 km/s
True Right ascension
21h 22m 42s
True Declination
0° 00' 00"
Sunlit
Object was in daylight at epoch
Visualization orbit readout
Latitude
Unknown
Longitude
Unknown
Altitude
Unknown
Speed
Unknown
Apparent Right ascension
Unknown
Apparent Declination
Unknown
Sunlit
N/A
Visualization observer readout
Local Sidereal Time
13:30:44
Azimuth
Unknown
Elevation
Unknown
Doppler factor
Unknown
Orbital elements
Apogee altitude
905.776 km
Perigee altitude
835.632 km
Semi-major axis
7,248.841 km
Eccentricity
0.00484
Inclination
70.07°
RAAN
320.6764°
Arg. of periapsis
191.5016°
True anomaly
168.60939°
Mean anomaly
168.4995°
Eccentric anomaly
168.55451°
Mean motion
3.51674 °/min
Orbital period
102.37 mins
BSTAR
0.000072817
Loading maneuver chart data...
Computing Atmospheric mass density...

Documentation

Showing up to 5 results
|